Weather History for Patuxent River, MD

Change the Weather History Date:

Friday, February 8, 2013

  Actual Average Record
Temperature  
Mean Temperature 41 °F -  
Max Temperature 45 °F 39 °F 34 °F (2014)
Min Temperature 37 °F 23 °F 24 °F (2014)
Degree Days  
Heating Degree Days 24    
Moisture  
Dew Point 35 °F    
Average Humidity 83    
Maximum Humidity 93    
Minimum Humidity 53    
Precipitation  
Precipitation 0.51 in - - ()
Sea Level Pressure  
Sea Level Pressure 29.89 in    
Wind  
Wind Speed 10 mph (NW)    
Max Wind Speed 31 mph    
Max Gust Speed 44 mph    
Visibility 7 miles    
Events Rain    
Averages and records for this station are not official NWS values.
T = Trace of Precipitation, MM = Missing Value Source: NWS Daily Summary

Daily Weather History Graph

Daily Weather History Graph

Search for Another Location

Airport:

Trip Planner

Search our weather history database for the weather conditions in past years. The results will help you decide how hot, cold, wet, or windy it might be!

Date:

Astronomy

Feb. 08, 2013 Rise Set
Actual Time 7:03 AM EST 5:36 PM EST
Civil Twilight 6:36 AM EST 6:03 PM EST
Nautical Twilight 6:05 AM EST 6:35 PM EST
Astronomical Twilight 5:34 AM EST 7:06 PM EST
Moon 5:29 AM EST (2/8) 4:07 PM EST (2/8)
Length of Visible Light 11h 27m
Length of Day
10h 32m
Waning Crescent, 3% of the Moon is Illuminated
Feb 8
Waning Crescent
Feb 10
New
Feb 17
First Quarter
Feb 25
Full
Mar 4
Last Quarter

Hourly Weather History & Observations

Time (EST) Temp. Windchill Dew Point Humidity Pressure Visibility Wind Dir Wind Speed Gust Speed Precip Events Conditions
12:34 AM 37.4 °F 33.8 °F 33.8 °F 87% 30.17 in 7.0 mi North 4.6 mph - 0.01 in Rain Light Rain
12:52 AM 37.9 °F 34.4 °F 33.1 °F 83% 30.16 in 9.0 mi North 4.6 mph - 0.02 in Rain Light Rain
1:41 AM 37.4 °F - 33.8 °F 87% 30.14 in 7.0 mi Calm Calm - 0.01 in Rain Light Rain
1:52 AM 37.0 °F 34.5 °F 33.1 °F 86% 30.13 in 6.0 mi North 3.5 mph - 0.02 in Rain Light Rain
2:39 AM 37.4 °F 33.8 °F 33.8 °F 87% 30.10 in 7.0 mi NNE 4.6 mph - 0.05 in Rain Light Rain
2:52 AM 37.0 °F 32.4 °F 34.0 °F 89% 30.10 in 7.0 mi NNE 5.8 mph - 0.06 in Rain Light Rain
2:59 AM 37.4 °F 32.8 °F 33.8 °F 87% 30.09 in 6.0 mi North 5.8 mph - 0.01 in Rain Rain
3:34 AM 37.4 °F 32.8 °F 35.6 °F 93% 30.06 in 5.0 mi NNW 5.8 mph - 0.05 in Rain Light Rain
3:52 AM 37.9 °F 34.4 °F 35.1 °F 89% 30.04 in 6.0 mi NW 4.6 mph - 0.07 in Rain Light Rain
4:06 AM 37.4 °F 32.8 °F 35.6 °F 93% 30.03 in 6.0 mi NNW 5.8 mph - 0.01 in Rain Light Rain
4:52 AM 37.9 °F 32.1 °F 35.1 °F 89% 29.99 in 5.0 mi NNW 8.1 mph - 0.06 in Rain Light Rain
5:52 AM 37.9 °F 32.7 °F 35.1 °F 89% 29.96 in 5.0 mi NNW 6.9 mph - 0.11 in Rain Rain
6:52 AM 37.9 °F 30.0 °F 35.1 °F 89% 29.94 in 6.0 mi NW 12.7 mph - 0.08 in Rain Light Rain
7:34 AM 39.2 °F 31.6 °F 35.6 °F 87% 29.90 in 7.0 mi NNW 12.7 mph - 0.01 in Rain Light Rain
7:52 AM 39.0 °F 31.4 °F 36.0 °F 89% 29.89 in 4.0 mi NNW 12.7 mph - 0.03 in Rain Light Rain
8:52 AM 39.0 °F 30.3 °F 36.0 °F 89% 29.85 in 4.0 mi NNW 16.1 mph - 0.02 in Rain Light Rain
9:52 AM 39.0 °F 29.3 °F 37.0 °F 93% 29.80 in 5.0 mi NNW 19.6 mph - 0.02 in Rain Light Rain
10:52 AM 41.0 °F 32.2 °F 37.9 °F 89% 29.78 in 6.0 mi NNW 18.4 mph - 0.01 in Rain Light Rain
11:24 AM 41.0 °F 32.2 °F 37.4 °F 87% 29.76 in 10.0 mi NW 18.4 mph 27.6 mph 0.01 in   Overcast
11:52 AM 42.1 °F 32.8 °F 39.0 °F 89% 29.75 in 10.0 mi NW 21.9 mph 26.5 mph 0.01 in   Overcast
12:21 PM 42.8 °F 33.5 °F 39.2 °F 87% 29.74 in 5.0 mi NW 23.0 mph 29.9 mph 0.00 in Rain Light Rain
12:52 PM 43.0 °F 35.4 °F 39.9 °F 89% 29.72 in 4.0 mi NW 16.1 mph - 0.00 in Rain Light Rain
1:35 PM 44.6 °F 36.1 °F 39.2 °F 81% 29.70 in 6.0 mi NW 21.9 mph 26.5 mph 0.00 in   Overcast
1:52 PM 45.0 °F 37.9 °F 41.0 °F 86% 29.70 in 7.0 mi NW 16.1 mph - 0.00 in   Overcast
2:52 PM 44.1 °F 37.1 °F 39.9 °F 85% 29.70 in 10.0 mi WNW 15.0 mph - N/A   Overcast
3:52 PM 43.0 °F 36.4 °F 39.0 °F 86% 29.71 in 7.0 mi WNW 12.7 mph - N/A   Overcast
4:52 PM 42.1 °F 33.6 °F 37.9 °F 85% 29.73 in 6.0 mi WNW 18.4 mph - N/A   Overcast
5:52 PM 42.1 °F 34.9 °F 37.0 °F 82% 29.76 in 7.0 mi WNW 13.8 mph 23.0 mph N/A   Overcast
6:30 PM 41.0 °F 32.8 °F 35.6 °F 81% 29.76 in 9.0 mi WNW 16.1 mph - N/A   Mostly Cloudy
6:52 PM 41.0 °F 33.9 °F 36.0 °F 82% 29.78 in 10.0 mi West 12.7 mph - N/A   Mostly Cloudy
7:52 PM 42.1 °F 34.5 °F 34.0 °F 73% 29.79 in 10.0 mi WNW 15.0 mph 23.0 mph N/A   Mostly Cloudy
8:52 PM 43.0 °F 35.1 °F 32.0 °F 65% 29.80 in 10.0 mi West 17.3 mph 23.0 mph N/A   Overcast
9:52 PM 42.1 °F 32.1 °F 27.0 °F 55% 29.82 in 10.0 mi West 25.3 mph 36.8 mph N/A   Overcast
10:52 PM 39.9 °F 29.2 °F 24.1 °F 53% 29.84 in 10.0 mi West 25.3 mph 34.5 mph N/A   Mostly Cloudy
11:52 PM 37.9 °F 25.5 °F 21.9 °F 53% 29.89 in 10.0 mi West 31.1 mph 43.7 mph N/A   Mostly Cloudy